Content
SEND FEEDBACK

Daily
Averages
Monthly
Summary
Philippines

OLONGAPO, PHILIPPINES


Home > Asia > Philippines
Elevation: 55 feet     Latitude: 14 48N     Longitude: 120 16E

WEATHER
 
SELECT A DAY
Number of Records: 134,820;   Date Range: 7/31/96 - 7/20/14
 
SHARE

PRINT THIS DATA

[ ← Previous Day ]
WEATHER ALMANAC - SEPTEMBER 14, 2013
[ Next Day → ]
[ °C ]   °F
Weather ElementAverageHighLow
Temperature78.1 °F82.4 °F (9:00 am)77 °F (1:00 am)
Dewpoint75.8 °F78 °F (11:00 am)73.4 °F (2:00 am)
Humidity92.2 %100 % (12:00 pm)84 % (9:00 am)
Barometer29.72 in29.80 in (1:00 am)29.65 in (4:00 pm)
Wind Speed3.9 mph18.4 mph (6:00 pm)
Weather ElementAverage
Visibility4.5 mi
Wind DirectionE (84.8 °)

Weather ElementTotal
Precipitation---
Cooling Degree Days14.7 (Base 65)
Growing Degree Days29.7 (Base 50)
Averaged from 27 records on September 14, 2013
WEATHER CONDITIONS BREAKOUT
WIND DIRECTION BREAKOUT
WEATHER BY HOUR - SEPTEMBER 14, 2013
[ °C ]   °F
Local TimeTemperatureDewpointHumidityBarometerVisibilityWind DirectionWind SpeedGust SpeedPrecipitationEventsConditions
1:00 AM77.0 °F75.2 °F94 %29.80 in6.2 miVariable1.2 mphMostly Cloudy
2:00 AM77.0 °F74.0 °F90 %29.74 in7.0 miCalmRainLight Rain Showers
2:00 AM77.0 °F73.4 °F89 %29.74 in6.2 miCalmMostly Cloudy
5:00 AM77.0 °F75.0 °F93 %29.72 in7.0 miCalmHaze
5:00 AM77.0 °F75.2 °F94 %29.71 in6.2 miCalmPartly Cloudy
6:00 AM78.8 °F75.2 °F89 %29.71 in5.6 miVariable2.3 mphMostly Cloudy
7:00 AM78.8 °F77.0 °F94 %29.74 in5.6 miVariable2.3 mphRainRain Showers
8:00 AM80.6 °F77.0 °F89 %29.77 in5.0 miVariable2.3 mphMostly Cloudy
9:00 AM82.4 °F77.0 °F84 %29.77 in4.3 miNNW (330°)4.6 mphRainLight Rain Showers
11:00 AM82.0 °F78.0 °F84 %29.75 in9.0 miNorth2.2 mphRainLight Rain
11:00 AM80.6 °F77.0 °F89 %29.74 in6.2 miVariable1.2 mphOvercast
12:00 PM77.0 °F77.0 °F100 %29.71 in3.1 miWSW (240°)4.6 mphRainRain
1:00 PM77.0 °F77.0 °F100 %29.71 in2.5 miWSW (240°)4.6 mphRain-ThunderstormThunderstorms and Rain
2:00 PM77.0 °F75.2 °F94 %29.68 in2.5 miESE (120°)5.8 mphRain-ThunderstormLight Thunderstorms and Rain
2:00 PM78.0 °F77.0 °F96 %29.69 in5.0 miESE (120°)6.7 mphRainLight Rain
3:00 PM78.8 °F75.2 °F89 %29.68 in2.5 miVariable2.3 mphRainLight Rain
4:00 PM77.0 °F75.2 °F94 %29.65 in2.5 miSW (230°)11.5 mphRainHeavy Rain
5:00 PM78.0 °F76.0 °F91 %29.68 inESE (120°)6.7 mphRainLight Rain
5:00 PM77.0 °F75.2 °F94 %29.68 in2.5 miVariable2.3 mphRainLight Rain
6:00 PM77.0 °F75.2 °F94 %29.68 in2.5 miWest (260°)18.4 mphRainLight Rain Showers
7:00 PM78.8 °F77.0 °F94 %29.71 in2.5 miNorth (360°)4.6 mphRainLight Rain Showers
8:00 PM78.0 °F76.0 °F90 %29.72 inNorth4.5 mphRainLight Rain
8:00 PM77.0 °F75.2 °F94 %29.71 in2.5 miVariable3.5 mphRainRain Showers
9:00 PM77.0 °F75.2 °F94 %29.74 in2.5 miVariable2.3 mphRainLight Rain Showers
10:00 PM77.0 °F75.2 °F94 %29.74 in2.5 miVariable2.3 mphRainRain Showers
11:00 PM78.0 °F75.0 °F89 %29.75 in5.0 miNE (50°)4.5 mphRainLight Rain
11:00 PM77.0 °F75.2 °F94 %29.74 in5.0 miNE (50°)3.5 mphRainLight Rain Showers
Hourly data recorded from RPLB, located miles away from Olongapo, Philippines







STORIES FROM OUR PARTNERS